Rolla, ND

8:38 AM CST on February 09, 2016 (GMT -0600)
Rolla

Weather History for K06D - July, 2013

Change the Weather History Date:

Sunday, July 14, 2013

  Actual Average (KRUG) Record (KRUG)
Temperature  
Mean Temperature 62 °F -  
Max Temperature 68 °F 83 °F 96 °F (1983)
Min Temperature 55 °F 56 °F 43 °F (1993)
Degree Days  
Heating Degree Days 4    
Growing Degree Days 12 (Base 50)    
Moisture  
Dew Point 57 °F    
Average Humidity 89    
Maximum Humidity 100    
Minimum Humidity 64    
Precipitation  
Precipitation 0.00 in - - ()
Sea Level Pressure  
Sea Level Pressure 30.21 in    
Wind  
Wind Speed 11 mph (NNE)    
Max Wind Speed 23 mph    
Max Gust Speed 28 mph    
Visibility 10 miles    
Events Thunderstorm    
Averages and records for this station are not official NWS values.
T = Trace of Precipitation, MM = Missing Value Source: NWS Daily Summary

Daily Weather History Graph

Daily Weather History Graph

Search for Another Location

Airport or City:

Trip Planner

Search our weather history database for the weather conditions in past years. The results will help you decide how hot, cold, wet, or windy it might be!

Date:

Astronomy

Jul. 14, 2013 Rise Set
Actual Time 5:50 AM CDT 9:37 PM CDT
Civil Twilight 5:09 AM CDT 10:18 PM CDT
Nautical Twilight 4:14 AM CDT 11:13 PM CDT
Astronomical Twilight 2:49 AM CDT 12:36 AM CDT
Moon 12:46 PM CDT (7/14) No Moon Set
Length of Visible Light 17h 08m
Length of Day
15h 47m
Waxing Crescent, 35% of the Moon is Illuminated
Jul 14
Waxing Crescent
Jul 15
First Quarter
Jul 22
Full
Jul 29
Last Quarter
Aug 6
New

Hourly Weather History & Observations

Time (CDT) Temp. Dew Point Humidity Pressure Visibility Wind Dir Wind Speed Gust Speed Precip Events Conditions
12:15 AM 60.8 °F 60.8 °F 100% 30.05 in 10.0 mi Calm Calm - N/A Thunderstorm Overcast
12:35 AM 60.8 °F 60.8 °F 100% 30.06 in 10.0 mi Calm Calm - N/A   Overcast
12:55 AM 60.8 °F 60.8 °F 100% 30.07 in 10.0 mi North 15.0 mph - N/A   Mostly Cloudy
1:15 AM 59.0 °F 59.0 °F 100% 30.06 in 10.0 mi North 10.4 mph - N/A   Partly Cloudy
1:35 AM 59.0 °F 59.0 °F 100% 30.06 in 10.0 mi North 9.2 mph - N/A   Partly Cloudy
1:55 AM 59.0 °F 59.0 °F 100% 30.07 in 10.0 mi NNW 16.1 mph 20.7 mph N/A   Mostly Cloudy
2:15 AM 59.0 °F 59.0 °F 100% 30.07 in 10.0 mi NNW 19.6 mph 23.0 mph N/A   Overcast
2:35 AM 57.2 °F 57.2 °F 100% 30.09 in 10.0 mi North 18.4 mph - N/A   Overcast
2:55 AM 57.2 °F 57.2 °F 100% 30.10 in 10.0 mi NNW 20.7 mph 26.5 mph N/A   Overcast
3:15 AM 57.2 °F 57.2 °F 100% 30.11 in 10.0 mi NNW 18.4 mph - N/A   Overcast
3:35 AM 57.2 °F 57.2 °F 100% 30.12 in 10.0 mi NNW 18.4 mph - N/A   Overcast
3:55 AM 57.2 °F 57.2 °F 100% 30.13 in 10.0 mi North 17.3 mph - N/A   Overcast
4:15 AM 57.2 °F 57.2 °F 100% 30.14 in 10.0 mi North 13.8 mph - N/A   Overcast
4:35 AM 55.4 °F 55.4 °F 100% 30.15 in 10.0 mi North 16.1 mph - N/A   Overcast
4:55 AM 55.4 °F 55.4 °F 100% 30.16 in 10.0 mi North 12.7 mph - N/A   Overcast
5:15 AM 55.4 °F 55.4 °F 100% 30.16 in 10.0 mi North 15.0 mph - N/A   Overcast
5:35 AM 55.4 °F 55.4 °F 100% 30.17 in 10.0 mi North 16.1 mph 20.7 mph N/A   Overcast
5:55 AM 55.4 °F 55.4 °F 100% 30.17 in 10.0 mi North 15.0 mph - N/A   Overcast
6:15 AM 55.4 °F 55.4 °F 100% 30.17 in 10.0 mi North 17.3 mph - N/A   Overcast
6:35 AM 55.4 °F 55.4 °F 100% 30.17 in 10.0 mi North 18.4 mph 25.3 mph N/A   Overcast
6:55 AM 57.2 °F 57.2 °F 100% 30.18 in 10.0 mi North 19.6 mph 25.3 mph N/A   Overcast
7:15 AM 57.2 °F 57.2 °F 100% 30.18 in 10.0 mi NNE 17.3 mph 26.5 mph N/A   Overcast
7:35 AM 57.2 °F 57.2 °F 100% 30.19 in 10.0 mi North 18.4 mph 23.0 mph N/A   Mostly Cloudy
7:55 AM 57.2 °F 57.2 °F 100% 30.19 in 10.0 mi NNE 19.6 mph 25.3 mph N/A   Overcast
8:15 AM 57.2 °F 57.2 °F 100% 30.20 in 10.0 mi NNE 23.0 mph 27.6 mph N/A   Overcast
8:35 AM 59.0 °F 57.2 °F 94% 30.21 in 10.0 mi NNE 18.4 mph 24.2 mph N/A   Overcast
8:55 AM 57.2 °F 57.2 °F 100% 30.22 in 10.0 mi North 17.3 mph - N/A   Mostly Cloudy
9:15 AM 57.2 °F 55.4 °F 94% 30.23 in 10.0 mi NNE 18.4 mph - N/A   Scattered Clouds
9:35 AM 59.0 °F 57.2 °F 94% 30.25 in 10.0 mi North 16.1 mph - N/A   Mostly Cloudy
9:55 AM 59.0 °F 57.2 °F 94% 30.26 in 10.0 mi NNE 17.3 mph - N/A   Overcast
10:15 AM 59.0 °F 57.2 °F 94% 30.26 in 10.0 mi North 15.0 mph - N/A   Overcast
10:35 AM 60.8 °F 57.2 °F 88% 30.26 in 10.0 mi NE 13.8 mph 20.7 mph N/A   Overcast
10:55 AM 60.8 °F 57.2 °F 88% 30.27 in 10.0 mi North 12.7 mph - N/A   Overcast
11:15 AM 60.8 °F 57.2 °F 88% 30.27 in 10.0 mi NNE 11.5 mph - N/A   Overcast
11:35 AM 60.8 °F 57.2 °F 88% 30.27 in 10.0 mi NNE 12.7 mph - N/A   Overcast
11:55 AM 60.8 °F 57.2 °F 88% 30.26 in 10.0 mi NNE 10.4 mph - N/A   Overcast
12:15 PM 60.8 °F 57.2 °F 88% 30.26 in 10.0 mi NNE 12.7 mph - N/A   Overcast
12:35 PM 62.6 °F 57.2 °F 82% 30.25 in 10.0 mi NNE 11.5 mph - N/A   Overcast
12:55 PM 62.6 °F 57.2 °F 82% 30.25 in 10.0 mi NNE 10.4 mph - N/A   Overcast
1:15 PM 62.6 °F 57.2 °F 82% 30.26 in 10.0 mi NNE 11.5 mph - N/A   Overcast
1:35 PM 62.6 °F 57.2 °F 82% 30.26 in 10.0 mi NNE 10.4 mph - N/A   Overcast
1:55 PM 64.4 °F 57.2 °F 77% 30.26 in 10.0 mi NNE 10.4 mph - N/A   Overcast
2:15 PM 64.4 °F 57.2 °F 77% 30.26 in 10.0 mi North 10.4 mph - N/A   Overcast
2:35 PM 64.4 °F 57.2 °F 77% 30.26 in 10.0 mi NNE 8.1 mph - N/A   Mostly Cloudy
2:55 PM 64.4 °F 57.2 °F 77% 30.26 in 10.0 mi North 10.4 mph - N/A   Mostly Cloudy
3:15 PM 66.2 °F 57.2 °F 73% 30.26 in 10.0 mi NNE 8.1 mph - N/A   Overcast
3:35 PM 66.2 °F 59.0 °F 78% 30.26 in 10.0 mi North 10.4 mph - N/A   Mostly Cloudy
3:55 PM 66.2 °F 57.2 °F 73% 30.26 in 10.0 mi NNE 9.2 mph - N/A   Scattered Clouds
4:15 PM 68.0 °F 57.2 °F 68% 30.27 in 10.0 mi North 11.5 mph - N/A   Scattered Clouds
4:35 PM 68.0 °F 57.2 °F 68% 30.26 in 10.0 mi NNE 10.4 mph - N/A   Mostly Cloudy
4:55 PM 68.0 °F 57.2 °F 68% 30.26 in 10.0 mi NNE 10.4 mph - N/A   Mostly Cloudy
5:15 PM 68.0 °F 57.2 °F 68% 30.26 in 10.0 mi North 10.4 mph - N/A   Scattered Clouds
5:35 PM 68.0 °F 55.4 °F 64% 30.26 in 10.0 mi North 9.2 mph - N/A   Partly Cloudy
5:55 PM 68.0 °F 55.4 °F 64% 30.26 in 10.0 mi NNE 5.8 mph - N/A   Scattered Clouds
6:15 PM 68.0 °F 55.4 °F 64% 30.25 in 10.0 mi NNE 9.2 mph - N/A   Partly Cloudy
6:35 PM 68.0 °F 55.4 °F 64% 30.25 in 10.0 mi NNE 6.9 mph - N/A   Clear
6:55 PM 68.0 °F 55.4 °F 64% 30.26 in 10.0 mi NNE 6.9 mph - N/A   Clear
7:15 PM 66.2 °F 55.4 °F 68% 30.26 in 10.0 mi NNE 6.9 mph - N/A   Clear
7:35 PM 66.2 °F 57.2 °F 73% 30.25 in 10.0 mi NNE 6.9 mph - N/A   Clear
7:55 PM 66.2 °F 55.4 °F 68% 30.25 in 10.0 mi NNE 6.9 mph - N/A   Clear
8:15 PM 66.2 °F 57.2 °F 73% 30.25 in 10.0 mi NE 4.6 mph - N/A   Clear
8:35 PM 64.4 °F 59.0 °F 83% 30.25 in 10.0 mi NNE 4.6 mph - N/A   Clear
8:55 PM 64.4 °F 60.8 °F 88% 30.27 in 10.0 mi North 3.5 mph - N/A   Scattered Clouds
9:15 PM 64.4 °F 59.0 °F 83% 30.26 in 10.0 mi NNE 3.5 mph - N/A   Mostly Cloudy
9:35 PM 62.6 °F 60.8 °F 94% 30.24 in 10.0 mi East 6.9 mph - N/A   Partly Cloudy
9:55 PM 60.8 °F 59.0 °F 94% 30.24 in 10.0 mi ENE 5.8 mph - N/A   Clear
10:15 PM 60.8 °F 60.8 °F 100% 30.26 in 10.0 mi Calm Calm - N/A   Clear
10:35 PM 60.8 °F 60.8 °F 100% 30.26 in 10.0 mi Calm Calm - N/A   Clear
10:55 PM 59.0 °F 59.0 °F 100% 30.24 in 10.0 mi Calm Calm - N/A   Clear
11:15 PM 59.0 °F 59.0 °F 100% 30.24 in 10.0 mi East 5.8 mph - N/A   Clear
11:35 PM 59.0 °F 59.0 °F 100% 30.24 in 10.0 mi East 6.9 mph - N/A   Clear
11:55 PM 59.0 °F 59.0 °F 100% 30.25 in 10.0 mi East 4.6 mph - N/A   Clear